User: anonymous   Login
Location: Unspecified
(0.0000°N, 0.0000°E)
Time: 05:36:25
(UTC+02:00)
Language:

Delta 168 - Orbit

View from above orbital plane
View from above orbital plane
View from above satellite
View from above satellite

Ground track
Ground track

The orbit data is extracted from the following two-line orbital elements,

1 14051U 83041B   15145.21252470  .00001746  00000-0  15010-3 0  9994
2 14051 025.3310 140.7349 1112875 159.7789 304.5665 13.04906068479710
Epoch (UTC): 25 May 2015 05:06:02
Eccentricity: 0.1112875
inclination: 25.3310°
perigee height: 395 km
apogee height: 2091 km
right ascension of ascending node: 140.7349°
argument of perigee: 159.7789°
revolutions per day: 13.04906068
mean anomaly at epoch: 304.5665°
orbit number at epoch: 47971

The dashed part of the orbit path shows where the satellite is in the earth's shadow,  

DLR